Simultaneous Nadir Overpasses (SNOs) Predictions

Prediction of SNOs between AQUA and METOP-A Satellite Orbit:

Table of predicted SNOs for the next 14.0 days since TLE Epoch: 3/4/2017
Index Date (AQUA) Time (AQUA) Lat,Lon (AQUA) SZA (AQUA ) Date (METOP-A) Time (METOP-A) Lat,Lon (METOP-A) SZA (METOP-A ) Distance(km) Time Diff (sec)
1 03/05/2017 10:40:17 -73.14,-164.44 100.94 03/05/2017 10:39:12 -73.08,-167.44 100.84 96.95 65
2 03/05/2017 11:29:59 73.89, 1.59 79.86 03/05/2017 11:29:36 73.88, 1.70 79.85 3.77 23
3 03/05/2017 12:19:25 -73.91, 169.19 100.13 03/05/2017 12:20:17 -73.91, 169.11 100.14 2.50 52
4 03/08/2017 06:14:38 -73.35, -98.44 101.82 03/08/2017 06:13:30 -73.31,-100.53 101.74 66.75 68
5 03/08/2017 07:04:15 73.85, 68.13 78.72 03/08/2017 07:03:59 73.85, 68.05 78.73 2.52 16
6 03/08/2017 07:53:43 -73.96,-124.49 101.18 03/08/2017 07:54:39 -73.94,-124.41 101.21 3.45 56
7 03/11/2017 01:48:59 -73.56, -32.45 102.69 03/11/2017 01:47:48 -73.54, -33.61 102.65 36.46 71
8 03/11/2017 02:38:32 73.86, 134.53 77.62 03/11/2017 02:38:21 73.87, 134.50 77.64 2.03 11
9 03/11/2017 03:27:59 -73.92, -57.96 102.34 03/11/2017 03:29:02 -73.92, -58.06 102.34 3.36 63
10 03/13/2017 21:23:19 -73.78, 33.51 103.57 03/13/2017 21:22:06 -73.72, 33.20 103.61 11.90 73
11 03/13/2017 22:12:48 73.87,-159.07 76.52 03/13/2017 22:12:42 73.89,-159.05 76.54 2.20 6
12 03/13/2017 23:02:15 -73.93, 8.46 103.44 03/13/2017 23:03:23 -73.94, 8.40 103.43 2.40 68
13 03/16/2017 16:57:37 -73.84, 99.79 104.62 03/16/2017 16:56:26 -73.84, 99.89 104.62 3.10 71
14 03/16/2017 17:47:05 73.89, -92.68 75.42 03/16/2017 17:47:04 73.91, -92.60 75.44 2.90 1




NCC Satellite Simultaneous Nadir Overpasses (SNOs) Prediction Service
